Location: ??
(35.4032°N, 139.3073°E)
Time: 03:05:03
(UTC+00:00)

DMSP B5D2-2 - Pass Details

Date: 13 April 2024
Orbit: 788 x 802 km, 98.3° (Epoch: 25 May)

Event Time Altitude Azimuth Distance (km) Brightness Sun altitude
Rises 18:53:45 0° 172° (S) 3,272 7.1 -15.9°
Reaches altitude 10° 18:56:04 10° 175° (S) 2,345 6.3 -15.5°
Maximum altitude 19:01:13 70° 258° (WSW) 841 4.0 -14.5°
Drops below altitude 10° 19:06:25 10° 342° (NNW) 2,356 6.6 -13.6°
Sets 19:08:45 0° 345° (NNW) 3,288 7.4 -13.1°
